Meteo Giornale » Osservazioni meteo Canada » Sarnia
ore: 14:55 - Osservazioni Meteo Sarnia
Lat. 43° 0' N Lon. 82° 19' W Alt. 181 metri s.l.m.
22 °C
Pioggia Foschia
Temp. 24 Ore
19 °C
24 °C
Nord
5.5 Km/h
Dew point 22 °C
Umidità 100 %
Visibilità 10 Km
Il sole sorge alle ore 06:52
Il sole tramonta alle ore 20:06
| Data e Ora | Cielo e Fenomeni | T °C | DP °C | Um. % | Pres. hPa | Vis. km | Vento km/h | |
|---|---|---|---|---|---|---|---|---|
| Oggi h: 14:55 | Pioggia Foschia | 22 | 22 | 100 | 1016 | 10 | N 5.5 | |
| Oggi h: 14:50 | Pioggia Foschia | 22 | 22 | 100 | 1016 | 5 | SE 11.1 | |
| Oggi h: 14:41 | Pioggia Foschia | 23 | 22 | 94 | 1017 | 8 | NE 7.4 | |
| Oggi h: 14:40 | Pioggia Foschia | 23 | 22 | 94 | 1017 | 10 | N 5.5 | |
| Oggi h: 14:27 | Pioggia | 24 | 22 | 88 | 1018 | 14 | N/NO 16.7 | |
| Oggi h: 14:00 | Molto Nuvoloso | 24 | 22 | 88 | 1016 | 14 | E 7.4 | |
| Oggi h: 13:59 | Molto Nuvoloso | 24 | 22 | 88 | 1017 | 14 | N 5.5 | |
| Oggi h: 13:30 | Pioggia | 24 | 22 | 88 | 1017 | 14 | SO 7.4 | |
| Oggi h: 13:02 | Poco Nuvoloso | 24 | 22 | 88 | 1017 | 14 | N 3.7 | |
| Oggi h: 13:00 | Pioggia | 24 | 22 | 88 | 1017 | 14 | N 3.7 | |
| Oggi h: 12:52 | Pioggia | 23 | 22 | 94 | 1017 | 14 | N 0 | |
| Oggi h: 12:12 | Molto Nuvoloso | 23 | 22 | 94 | 1018 | 14 | N 3.7 | |
| Oggi h: 12:00 | Pioggia | 23 | 22 | 94 | 1018 | 14 | N 0 | |
| Oggi h: 11:27 | Pioggia | 23 | 21 | 88 | 1017 | 14 | S/SO 7.4 | |
| Oggi h: 11:00 | Coperto | 23 | 21 | 88 | 1016 | 14 | S/SO 13 | |
| Oggi h: 10:59 | Coperto | 23 | 21 | 88 | 1016 | 14 | S/SO 13 | |
| Oggi h: 10:33 | Pioggia | 23 | 22 | 94 | 1016 | 14 | S/SO 9.3 | |
| Oggi h: 10:17 | Coperto | 23 | 22 | 94 | 1016 | 14 | S/SO 11.1 | |
| Oggi h: 10:06 | Pioggia | 23 | 22 | 94 | 1016 | 14 | S/SO 9.3 | |
| Oggi h: 10:00 | Coperto | 23 | 22 | 94 | 1016 | 14 | S/SO 11.1 | |
| Oggi h: 09:00 | Coperto | 22 | 21 | 94 | 1016 | 11 | S 13 | |
| Oggi h: 08:42 | Foschia | 22 | 21 | 94 | 1016 | 10 | S/SO 13 | |
| Oggi h: 08:24 | Foschia | 21 | 21 | 100 | 1015 | 6 | S 13 | |
| Oggi h: 08:06 | Pioggia Foschia | 21 | 21 | 100 | 1016 | 6 | S 9.3 | |
| Oggi h: 08:00 | Foschia | 21 | 21 | 100 | 1016 | 8 | S/SE 9.3 | |
| Oggi h: 07:00 | Foschia | 21 | 21 | 100 | 1016 | 8 | S 7.4 | |
| Oggi h: 06:29 | Foschia | 21 | 21 | 100 | 1016 | 8 | N 5.5 | |
| Oggi h: 06:00 | Foschia | 21 | 21 | 100 | 1016 | 10 | S 9.3 | |
| Oggi h: 05:00 | Coperto | 21 | 21 | 100 | 1016 | 13 | S 7.4 | |
| Oggi h: 04:00 | Coperto | 21 | 21 | 100 | 1016 | 14 | N 5.5 | |
| Oggi h: 03:28 | Coperto | 21 | 21 | 100 | 1016 | 13 | S/SO 11.1 | |
| Oggi h: 03:17 | Foschia | 21 | 21 | 100 | 1016 | 8 | S/SO 9.3 | |
| Oggi h: 03:00 | Coperto | 21 | 21 | 100 | 1016 | 14 | S/SO 11.1 | |
| Oggi h: 02:00 | Coperto | 20 | 20 | 100 | 1016 | 14 | S 7.4 | |
| Oggi h: 01:00 | Coperto | 20 | 19 | 93 | 1017 | 14 | S 7.4 | |
| Oggi h: 00:00 | Coperto | 20 | 19 | 93 | 1017 | 14 | S 9.3 | |
| Ieri h: 23:00 | Coperto | 20 | 19 | 93 | 1017 | 14 | S 11.1 | |
| Ieri h: 22:00 | Coperto | 20 | 19 | 93 | 1016 | 14 | S 14.8 | |
| Ieri h: 21:00 | Coperto | 20 | 19 | 93 | 1017 | 14 | S/SE 18.5 | |
| Ieri h: 20:20 | Coperto | 20 | 19 | 93 | 1016 | 14 | S/SE 16.7 | |
| Ieri h: 20:00 | Pioggia | 20 | 20 | 100 | 1016 | 11 | S/SE 22.2 | |
| Ieri h: 19:59 | Pioggia | 20 | 20 | 100 | 1016 | 11 | S/SE 24 | |
| Ieri h: 19:54 | Pioggia Temporale nelle vicinanze | 20 | 20 | 100 | 1016 | 11 | S/SE 24 | |
| Ieri h: 19:39 | Temporale | 20 | 19 | 93 | 1017 | 11 | SE 18.5 | |
| Ieri h: 19:38 | Pioggia | 20 | 19 | 93 | 1017 | 11 | SE 18.5 | |
| Ieri h: 19:25 | Temporale Foschia | 20 | 20 | 100 | 1017 | 10 | S/SE 18.5 | |
| Ieri h: 19:22 | Temporale Foschia | 20 | 20 | 100 | 1017 | 6 | SE 18.5 | |
| Ieri h: 19:20 | Pioggia Foschia | 20 | 20 | 100 | 1017 | 6 | SE 18.5 | |
| Ieri h: 19:13 | Temporale Foschia | 20 | 20 | 100 | 1018 | 8 | S/SE 13 | |
| Ieri h: 19:12 | Temporale Foschia | 20 | 20 | 100 | 1018 | 8 | S/SE 13 | |
| Ieri h: 19:09 | Temporale Foschia | 20 | 20 | 100 | 1018 | 10 | S/SE 13 | |
| Ieri h: 19:04 | Temporale Foschia | 20 | 20 | 100 | 1017 | 6 | S/SE 16.7 | |
| Ieri h: 19:03 | Pioggia Foschia | 20 | 20 | 100 | 1017 | 6 | S/SE 20.3 | |
| Ieri h: 19:00 | Temporale Foschia | 20 | 20 | 100 | 1018 | 6 | S/SE 22.2 | |
| Ieri h: 18:50 | Temporale Foschia | 20 | 20 | 100 | 1018 | 8 | S 16.7 | |
| Ieri h: 18:47 | Temporale | 20 | 20 | 100 | 1018 | 11 | S 13 | |
| Ieri h: 18:41 | Pioggia | 20 | 20 | 100 | 1018 | 11 | S 16.7 | |
| Ieri h: 18:35 | Pioggia Foschia | 20 | 20 | 100 | 1018 | 8 | S 11.1 | |
| Ieri h: 18:33 | Pioggia Foschia | 20 | 20 | 100 | 1018 | 8 | S 9.3 | |
| Ieri h: 18:31 | Pioggia Foschia | 20 | 20 | 100 | 1018 | 10 | S 9.3 | |
| Ieri h: 18:04 | Pioggia Foschia | 20 | 19 | 93 | 1018 | 10 | S 9.3 | |
| Ieri h: 18:00 | Pioggia Foschia | 20 | 20 | 100 | 1018 | 10 | S 7.4 | |
| Ieri h: 17:43 | Pioggia | 20 | 20 | 100 | 1017 | 14 | S 14.8 | |
| Ieri h: 17:40 | Coperto | 20 | 19 | 93 | 1017 | 14 | S 11.1 | |
| Ieri h: 17:13 | Pioggia Foschia | 20 | 20 | 100 | 1016 | 10 | S 14.8 | |
| Ieri h: 17:09 | Pioggia Foschia | 20 | 20 | 100 | 1017 | 8 | S 14.8 | |
| Ieri h: 17:05 | Pioggia Foschia | 20 | 20 | 100 | 1017 | 8 | S 14.8 | |
| Ieri h: 17:04 | Pioggia Foschia | 20 | 20 | 100 | 1017 | 8 | S 14.8 | |
| Ieri h: 17:00 | Pioggia | 20 | 20 | 100 | 1017 | 11 | S/SO 14.8 | |
| Ieri h: 16:24 | Pioggia | 20 | 20 | 100 | 1017 | 13 | S 14.8 | |
| Ieri h: 16:22 | Coperto | 20 | 20 | 100 | 1017 | 13 | S 16.7 | |
| Ieri h: 16:00 | Pioggia Foschia | 20 | 19 | 93 | 1017 | 10 | S 18.5 | |
| Ieri h: 15:59 | Temporale Foschia | 20 | 19 | 93 | 1017 | 10 | S 16.7 | |
| Ieri h: 15:44 | Temporale Foschia | 19 | 19 | 100 | 1018 | 5 | S 13 | |
| Ieri h: 15:43 | Pioggia Temporale nelle vicinanze | 19 | 19 | 100 | 1018 | 5 | S 13 | |
| Ieri h: 15:35 | Pioggia Temporale nelle vicinanze | 19 | 19 | 100 | 1018 | 5 | S 14.8 | |
| Ieri h: 15:32 | Pioggia Foschia | 19 | 19 | 100 | 1018 | 5 | S 11.1 | |



